Erzurum, Turkey

11:20 AM EET on February 14, 2016 (GMT +0200)
Erzurum

Weather History for LTCE - May, 2013

Change the Weather History Date:

Wednesday, May 8, 2013

  Actual Average Record
Temperature  
Mean Temperature 50 °F -  
Max Temperature 60 °F 64 °F - (-1)
Min Temperature 40 °F 42 °F - (-1)
Degree Days  
Heating Degree Days 15    
Moisture  
Dew Point 41 °F    
Average Humidity 69    
Maximum Humidity 93    
Minimum Humidity 37    
Precipitation  
Precipitation 0.00 in 0.08 in - ()
Sea Level Pressure  
Sea Level Pressure 30.08 in    
Wind  
Wind Speed 8 mph ()    
Max Wind Speed 21 mph    
Max Gust Speed -    
Visibility 6.6 miles    
Events Thunderstorm    
Averages and records for this station are not official NWS values.
T = Trace of Precipitation, MM = Missing Value Source: Averaged Metar Reports

Daily Weather History Graph

Daily Weather History Graph

Search for Another Location

Airport or City:

Trip Planner

Search our weather history database for the weather conditions in past years. The results will help you decide how hot, cold, wet, or windy it might be!

Date:

Astronomy

May. 08, 2013 Rise Set
Actual Time 5:07 AM EEST 7:16 PM EEST
Civil Twilight 4:37 AM EEST 7:46 PM EEST
Nautical Twilight 4:00 AM EEST 8:23 PM EEST
Astronomical Twilight 3:20 AM EEST 9:03 PM EEST
Moon 4:02 AM EEST (5/8) 5:54 PM EEST (5/8)
Length of Visible Light 15h 09m
Length of Day
14h 09m
Waning Crescent, 3% of the Moon is Illuminated
May 8
Waning Crescent
May 10
New
May 18
First Quarter
May 25
Full
May 31
Last Quarter

Hourly Weather History & Observations

Time (EEST) Temp. Windchill Dew Point Humidity Pressure Visibility Wind Dir Wind Speed Gust Speed Precip Events Conditions
12:20 AM 50.0 °F - 42.8 °F 76% 30.12 in 6.2 mi East 9.2 mph - N/A   Mostly Cloudy
12:50 AM 50.0 °F - 42.8 °F 76% 30.09 in 6.2 mi East 10.4 mph - N/A   Mostly Cloudy
1:20 AM 48.2 °F - 42.8 °F 82% 30.09 in 6.2 mi ENE 10.4 mph - N/A   Mostly Cloudy
1:50 AM 48.2 °F - 42.8 °F 82% 30.09 in 6.2 mi ENE 9.2 mph - N/A   Mostly Cloudy
2:20 AM 48.2 °F - 44.6 °F 87% 30.09 in 6.2 mi East 9.2 mph - N/A   Mostly Cloudy
3:00 AM 49 °F - 44 °F 76%  in 12 mi East 10.4 mph - -   Partly Cloudy
3:20 AM 48.2 °F - 42.8 °F 82% 30.09 in 6.2 mi East 9.2 mph - N/A   Mostly Cloudy
3:50 AM 46.4 °F 43.5 °F 42.8 °F 87% 30.09 in 6.2 mi ENE 5.8 mph - N/A   Mostly Cloudy
4:20 AM 46.4 °F 43.5 °F 42.8 °F 87% 30.06 in 6.2 mi East 5.8 mph - N/A   Mostly Cloudy
4:50 AM 44.6 °F 42.2 °F 41.0 °F 87% 30.06 in 6.2 mi East 4.6 mph - N/A   Mostly Cloudy
5:20 AM 42.8 °F 40.1 °F 41.0 °F 93% 30.06 in 6.2 mi ESE 4.6 mph - N/A   Mostly Cloudy
5:50 AM 41.0 °F - 39.2 °F 93% 30.09 in 6.2 mi Variable 1.2 mph - N/A   Mostly Cloudy
6:20 AM 41.0 °F 39.0 °F 39.2 °F 93% 30.09 in 6.2 mi West 3.5 mph - N/A   Scattered Clouds
6:50 AM 44.6 °F - 42.8 °F 93% 30.09 in 6.2 mi Calm Calm - N/A   Partly Cloudy
7:20 AM 50.0 °F - 44.6 °F 82% 30.09 in 6.2 mi Variable 2.3 mph - N/A   Partly Cloudy
7:50 AM 51.8 °F - 44.6 °F 76% 30.09 in 6.2 mi Variable 2.3 mph - N/A   Partly Cloudy
8:20 AM 53.6 °F - 42.8 °F 67% 30.09 in 6.2 mi East 10.4 mph - N/A   Partly Cloudy
8:50 AM 55.4 °F - 41.0 °F 58% 30.09 in 6.2 mi ENE 8.1 mph - N/A   Scattered Clouds
9:00 AM 56 °F - 44 °F 54%  in 12 mi ENE 8.1 mph - -   Partly Cloudy
9:20 AM 55.4 °F - 41.0 °F 58% 30.09 in 6.2 mi ENE 10.4 mph - N/A   Scattered Clouds
9:50 AM 57.2 °F - 42.8 °F 59% 30.09 in 6.2 mi ENE 9.2 mph - N/A   Scattered Clouds
10:20 AM 57.2 °F - 41.0 °F 55% 30.09 in 6.2 mi East 6.9 mph - N/A   Scattered Clouds
10:50 AM 57.2 °F - 39.2 °F 51% 30.06 in 6.2 mi East 6.9 mph - N/A   Mostly Cloudy
11:20 AM 57.2 °F - 42.8 °F 59% 30.06 in 6.2 mi East 6.9 mph - N/A   Mostly Cloudy
11:50 AM 57.2 °F - 41.0 °F 55% 30.06 in 6.2 mi ESE 6.9 mph - N/A   Mostly Cloudy
12:20 PM 59.0 °F - 39.2 °F 48% 30.06 in 6.2 mi SE 4.6 mph - N/A   Mostly Cloudy
12:30 PM 59.0 °F - 39.2 °F 48% 30.06 in 6.2 mi Variable 4.6 mph - N/A Thunderstorm Thunderstorm
12:50 PM 59.0 °F - 42.8 °F 55% 30.06 in 6.2 mi East 4.6 mph - N/A Thunderstorm Thunderstorm
1:20 PM 59.0 °F - 39.2 °F 48% 30.06 in 6.2 mi North 16.1 mph - N/A   Mostly Cloudy
1:50 PM 57.2 °F - 39.2 °F 51% 30.06 in 6.2 mi North 20.7 mph - N/A   Mostly Cloudy
2:20 PM 57.2 °F - 37.4 °F 48% 30.06 in 6.2 mi North 16.1 mph - N/A   Mostly Cloudy
2:50 PM 57.2 °F - 39.2 °F 51% 30.06 in 6.2 mi NE 13.8 mph - N/A   Mostly Cloudy
3:00 PM 58 °F - 39 °F 37%  in 12 mi NE 13.8 mph - -   Partly Cloudy
3:20 PM 57.2 °F - 39.2 °F 51% 30.06 in 6.2 mi NE 8.1 mph - N/A   Mostly Cloudy
3:50 PM 59.0 °F - 35.6 °F 42% 30.06 in 6.2 mi North 12.7 mph - N/A   Mostly Cloudy
4:20 PM 57.2 °F - 37.4 °F 48% 30.06 in 6.2 mi NE 10.4 mph - N/A   Mostly Cloudy
4:50 PM 57.2 °F - 41.0 °F 55% 30.06 in 6.2 mi ENE 18.4 mph - N/A   Mostly Cloudy
5:20 PM 55.4 °F - 41.0 °F 58% 30.06 in 6.2 mi NE 19.6 mph - N/A   Mostly Cloudy
5:50 PM 55.4 °F - 41.0 °F 58% 30.06 in 6.2 mi NE 17.3 mph - N/A   Mostly Cloudy
6:20 PM 55.4 °F - 41.0 °F 58% 30.06 in 6.2 mi NE 13.8 mph - N/A   Mostly Cloudy
6:50 PM 51.8 °F - 42.8 °F 71% 30.06 in 6.2 mi ENE 13.8 mph - N/A   Mostly Cloudy
7:20 PM 50.0 °F - 41.0 °F 71% 30.09 in 6.2 mi ENE 10.4 mph - N/A   Mostly Cloudy
7:50 PM 50.0 °F - 41.0 °F 71% 30.09 in 6.2 mi East 11.5 mph - N/A   Scattered Clouds
8:20 PM 48.2 °F - 42.8 °F 82% 30.09 in 6.2 mi East 12.7 mph - N/A   Scattered Clouds
8:50 PM 48.2 °F - 41.0 °F 76% 30.12 in 6.2 mi East 9.2 mph - N/A   Scattered Clouds
9:00 PM 47 °F - 42 °F 76%  in 12 mi East 9.2 mph - -   Partly Cloudy
9:20 PM 48.2 °F - 41.0 °F 76% 30.12 in 6.2 mi East 9.2 mph - N/A   Scattered Clouds
9:50 PM 46.4 °F 41.1 °F 42.8 °F 87% 30.12 in 6.2 mi ENE 11.5 mph - N/A   Scattered Clouds
10:20 PM 46.4 °F 41.9 °F 41.0 °F 81% 30.12 in 6.2 mi ENE 9.2 mph - N/A   Scattered Clouds
10:50 PM 44.6 °F 38.8 °F 42.8 °F 93% 30.12 in 6.2 mi ENE 11.5 mph - N/A   Scattered Clouds
11:20 PM 46.4 °F 40.7 °F 42.8 °F 87% 30.12 in 6.2 mi ENE 12.7 mph - N/A   Partly Cloudy
11:50 PM 46.4 °F 41.5 °F 41.0 °F 81% 30.12 in 6.2 mi ENE 10.4 mph - N/A   Partly Cloudy